Time,TemperatureF,DewpointF,PressureIn,WindDirection,WindDirectionDegrees,WindSpeedMPH,WindSpeedGustMPH,Humidity,HourlyPrecipIn,Conditions,Clouds,dailyrainin,SoftwareType,DateUTC
2013-03-14 00:04:00,27.7,19.5,30.38,WSW,248,5.1,5.8,71,0.00,,,0.00,WUHU216HW,2013-03-14 04:04:00,
2013-03-14 00:09:00,27.4,19.2,30.38,WSW,248,4.7,5.6,71,0.00,,,0.00,WUHU216HW,2013-03-14 04:09:00,
2013-03-14 00:14:00,27.4,19.2,30.38,West,270,7.2,7.2,71,0.00,,,0.00,WUHU216HW,2013-03-14 04:14:00,
2013-03-14 00:19:00,27.7,19.5,30.37,West,270,6.3,7.2,71,0.00,,,0.00,WUHU216HW,2013-03-14 04:19:00,
2013-03-14 00:24:00,27.5,19.7,30.37,WSW,248,5.1,6.9,72,0.00,,,0.00,WUHU216HW,2013-03-14 04:24:00,
2013-03-14 00:29:00,27.4,19.5,30.37,WSW,248,4.7,5.8,72,0.00,,,0.00,WUHU216HW,2013-03-14 04:29:00,
2013-03-14 00:34:00,27.0,19.2,30.37,WSW,248,4.9,5.6,72,0.00,,,0.00,WUHU216HW,2013-03-14 04:34:00,
2013-03-14 00:39:00,27.0,19.2,30.37,WSW,248,4.0,4.9,72,0.00,,,0.00,WUHU216HW,2013-03-14 04:39:00,
2013-03-14 00:44:00,26.8,19.0,30.37,WSW,248,4.0,4.5,72,0.00,,,0.00,WUHU216HW,2013-03-14 04:44:00,
2013-03-14 00:49:00,26.8,19.0,30.37,WSW,248,4.7,4.7,72,0.00,,,0.00,WUHU216HW,2013-03-14 04:49:00,
2013-03-14 00:54:00,26.6,19.1,30.38,WSW,248,4.7,4.7,73,0.00,,,0.00,WUHU216HW,2013-03-14 04:54:00,
2013-03-14 00:59:00,26.6,18.8,30.37,West,270,3.6,4.7,72,0.00,,,0.00,WUHU216HW,2013-03-14 04:59:00,
2013-03-14 01:04:00,26.8,19.0,30.37,WSW,248,4.0,4.5,72,0.00,,,0.00,WUHU216HW,2013-03-14 05:04:00,
2013-03-14 01:09:00,26.8,19.3,30.38,West,270,5.4,5.4,73,0.00,,,0.00,WUHU216HW,2013-03-14 05:09:00,
2013-03-14 01:14:00,26.8,19.3,30.37,West,270,4.7,5.4,73,0.00,,,0.00,WUHU216HW,2013-03-14 05:14:00,
2013-03-14 01:19:00,27.0,19.4,30.37,West,270,5.4,6.3,73,0.00,,,0.00,WUHU216HW,2013-03-14 05:19:00,
2013-03-14 01:24:00,27.0,19.4,30.37,WSW,248,4.7,6.3,73,0.00,,,0.00,WUHU216HW,2013-03-14 05:24:00,
2013-03-14 01:29:00,27.0,19.4,30.37,WSW,248,4.7,6.3,73,0.00,,,0.00,WUHU216HW,2013-03-14 05:29:00,
2013-03-14 01:34:00,27.0,19.4,30.37,WSW,248,4.7,4.9,73,0.00,,,0.00,WUHU216HW,2013-03-14 05:34:00,
2013-03-14 01:39:00,27.0,19.8,30.37,WSW,248,4.5,5.6,74,0.00,,,0.00,WUHU216HW,2013-03-14 05:39:00,
2013-03-14 01:44:00,27.0,19.8,30.37,West,270,5.1,6.0,74,0.00,,,0.00,WUHU216HW,2013-03-14 05:44:00,
2013-03-14 01:49:00,27.2,20.0,30.37,WSW,248,4.9,6.0,74,0.00,,,0.00,WUHU216HW,2013-03-14 05:49:00,
2013-03-14 01:54:00,27.2,20.0,30.37,WSW,248,5.8,6.9,74,0.00,,,0.00,WUHU216HW,2013-03-14 05:54:00,
2013-03-14 01:59:00,27.4,20.2,30.37,West,270,5.6,7.4,74,0.00,,,0.00,WUHU216HW,2013-03-14 05:59:00,
2013-03-14 02:04:00,27.7,20.8,30.37,West,270,4.7,7.4,75,0.00,,,0.00,WUHU216HW,2013-03-14 06:04:00,
2013-03-14 02:09:00,27.7,20.5,30.37,West,270,4.7,6.0,74,0.00,,,0.00,WUHU216HW,2013-03-14 06:09:00,
2013-03-14 02:14:00,27.7,20.5,30.38,WNW,293,5.1,6.3,74,0.00,,,0.00,WUHU216HW,2013-03-14 06:14:00,
2013-03-14 02:19:00,27.7,20.5,30.38,West,270,4.0,6.3,74,0.00,,,0.00,WUHU216HW,2013-03-14 06:19:00,
2013-03-14 02:24:00,27.7,20.2,30.38,WNW,293,4.7,5.8,73,0.00,,,0.00,WUHU216HW,2013-03-14 06:24:00,
2013-03-14 02:29:00,27.7,20.5,30.38,WSW,248,6.3,7.6,74,0.00,,,0.00,WUHU216HW,2013-03-14 06:29:00,
2013-03-14 02:34:00,27.7,20.5,30.38,WSW,248,4.9,7.6,74,0.00,,,0.00,WUHU216HW,2013-03-14 06:34:00,
2013-03-14 02:39:00,27.5,20.4,30.38,WSW,248,4.7,5.8,74,0.00,,,0.00,WUHU216HW,2013-03-14 06:39:00,
2013-03-14 02:45:00,27.7,20.5,30.38,West,270,4.5,5.8,74,0.00,,,0.00,WUHU216HW,2013-03-14 06:45:00,
2013-03-14 02:50:00,27.7,20.5,30.38,West,270,4.7,5.4,74,0.00,,,0.00,WUHU216HW,2013-03-14 06:50:00,
2013-03-14 02:55:00,27.9,20.7,30.38,West,270,4.5,4.9,74,0.00,,,0.00,WUHU216HW,2013-03-14 06:55:00,
2013-03-14 03:00:00,28.1,20.5,30.38,West,270,5.4,5.4,73,0.00,,,0.00,WUHU216HW,2013-03-14 07:00:00,
2013-03-14 03:05:00,28.3,20.7,30.38,WNW,293,6.3,6.9,73,0.00,,,0.00,WUHU216HW,2013-03-14 07:05:00,
2013-03-14 03:10:00,28.3,20.7,30.37,WSW,248,5.4,6.9,73,0.00,,,0.00,WUHU216HW,2013-03-14 07:10:00,
2013-03-14 03:15:00,28.3,20.7,30.37,West,270,4.9,5.6,73,0.00,,,0.00,WUHU216HW,2013-03-14 07:15:00,